Time,TemperatureF,DewpointF,PressureIn,WindDirection,WindDirectionDegrees,WindSpeedMPH,WindSpeedGustMPH,Humidity,HourlyPrecipIn,Conditions,Clouds,dailyrainin,SoftwareType,DateUTC
2013-04-29 00:09:00,54.4,51.2,29.90,South,181,2.0,5.0,89,0.00,,,0.00,Wunderground v.1.15,2013-04-29 07:09:00,
2013-04-29 00:19:00,54.2,51.0,29.90,South,180,3.0,3.0,89,0.00,,,0.00,Wunderground v.1.15,2013-04-29 07:19:00,
2013-04-29 00:29:00,54.1,50.9,29.90,South,180,1.0,1.0,89,0.00,,,0.00,Wunderground v.1.15,2013-04-29 07:29:00,
2013-04-29 00:39:00,54.2,51.0,29.90,South,181,1.0,4.0,89,0.00,,,0.00,Wunderground v.1.15,2013-04-29 07:39:00,
2013-04-29 00:49:00,54.1,50.9,29.90,South,181,3.0,3.0,89,0.00,,,0.00,Wunderground v.1.15,2013-04-29 07:49:00,
2013-04-29 00:59:00,53.9,50.7,29.90,South,180,2.0,5.0,89,0.00,,,0.00,Wunderground v.1.15,2013-04-29 07:59:00,
2013-04-29 01:09:00,54.1,50.9,29.90,South,181,2.0,2.0,89,0.00,,,0.00,Wunderground v.1.15,2013-04-29 08:09:00,
2013-04-29 01:19:00,53.8,50.6,29.90,South,181,2.0,6.0,89,0.00,,,0.00,Wunderground v.1.15,2013-04-29 08:19:00,
2013-04-29 01:29:00,53.6,50.4,29.90,South,181,2.0,2.0,89,0.00,,,0.00,Wunderground v.1.15,2013-04-29 08:29:00,
2013-04-29 01:39:00,53.5,50.3,29.90,South,182,3.0,3.0,89,0.00,,,0.00,Wunderground v.1.15,2013-04-29 08:39:00,
2013-04-29 01:49:00,53.5,50.3,29.90,South,182,2.0,2.0,89,0.00,,,0.00,Wunderground v.1.15,2013-04-29 08:49:00,
2013-04-29 01:59:00,53.5,50.3,29.90,South,182,1.0,1.0,89,0.00,,,0.00,Wunderground v.1.15,2013-04-29 08:59:00,
2013-04-29 02:09:00,53.6,50.1,29.90,South,182,0.0,4.0,88,0.00,,,0.00,Wunderground v.1.15,2013-04-29 09:09:00,
2013-04-29 02:19:00,53.8,50.3,29.90,South,182,0.0,0.0,88,0.00,,,0.00,Wunderground v.1.15,2013-04-29 09:19:00,
2013-04-29 02:29:00,53.9,50.4,29.89,South,182,0.0,3.0,88,0.00,,,0.00,Wunderground v.1.15,2013-04-29 09:29:00,
2013-04-29 02:39:00,54.2,50.7,29.89,South,182,0.0,3.0,88,0.00,,,0.00,Wunderground v.1.15,2013-04-29 09:39:00,
2013-04-29 02:49:00,54.4,50.9,29.89,South,182,0.0,1.0,88,0.00,,,0.00,Wunderground v.1.15,2013-04-29 09:49:00,
2013-04-29 02:59:00,54.5,51.0,29.88,South,182,0.0,1.0,88,0.00,,,0.00,Wunderground v.1.15,2013-04-29 09:59:00,
2013-04-29 03:09:00,54.7,51.2,29.88,South,182,0.0,2.0,88,0.00,,,0.00,Wunderground v.1.15,2013-04-29 10:09:00,
2013-04-29 03:19:00,54.7,51.2,29.88,South,182,2.0,2.0,88,0.00,,,0.00,Wunderground v.1.15,2013-04-29 10:19:00,
2013-04-29 03:29:00,54.7,51.5,29.88,South,173,2.0,4.0,89,0.00,,,0.00,Wunderground v.1.15,2013-04-29 10:29:00,
2013-04-29 03:39:00,54.8,51.0,29.88,ESE,116,2.0,4.0,87,0.00,,,0.00,Wunderground v.1.15,2013-04-29 10:39:00,
2013-04-29 03:49:00,55.0,51.2,29.88,ESE,113,3.0,5.0,87,0.00,,,0.00,Wunderground v.1.15,2013-04-29 10:49:00,
2013-04-29 03:59:00,55.1,51.6,29.88,ESE,104,3.0,5.0,88,0.00,,,0.00,Wunderground v.1.15,2013-04-29 10:59:00,
2013-04-29 04:09:00,55.0,51.5,29.88,ENE,74,4.0,4.0,88,0.00,,,0.00,Wunderground v.1.15,2013-04-29 11:09:00,
2013-04-29 04:19:00,55.0,51.5,29.88,ENE,70,4.0,4.0,88,0.00,,,0.00,Wunderground v.1.15,2013-04-29 11:19:00,
2013-04-29 04:29:00,55.0,51.5,29.88,ENE,70,3.0,3.0,88,0.00,,,0.00,Wunderground v.1.15,2013-04-29 11:29:00,
2013-04-29 04:39:00,55.0,51.5,29.88,ENE,70,2.0,5.0,88,0.00,,,0.00,Wunderground v.1.15,2013-04-29 11:39:00,
2013-04-29 04:49:00,55.1,51.6,29.88,ENE,70,3.0,3.0,88,0.00,,,0.00,Wunderground v.1.15,2013-04-29 11:49:00,
2013-04-29 04:59:00,55.1,51.6,29.88,ENE,70,3.0,3.0,88,0.00,,,0.00,Wunderground v.1.15,2013-04-29 11:59:00,
2013-04-29 05:09:00,55.1,51.6,29.88,ENE,70,2.0,2.0,88,0.00,,,0.00,Wunderground v.1.15,2013-04-29 12:09:00,
2013-04-29 05:19:00,55.0,51.5,29.88,ENE,70,1.0,5.0,88,0.00,,,0.00,Wunderground v.1.15,2013-04-29 12:19:00,
2013-04-29 05:29:00,55.0,51.8,29.88,ENE,70,2.0,4.0,89,0.00,,,0.00,Wunderground v.1.15,2013-04-29 12:29:00,
2013-04-29 05:39:00,55.1,51.9,29.88,ENE,70,2.0,2.0,89,0.00,,,0.00,Wunderground v.1.15,2013-04-29 12:39:00,
2013-04-29 05:49:00,55.1,51.9,29.88,ENE,70,2.0,2.0,89,0.00,,,0.00,Wunderground v.1.15,2013-04-29 12:49:00,
2013-04-29 05:59:00,55.1,51.9,29.89,ENE,70,1.0,1.0,89,0.00,,,0.00,Wunderground v.1.15,2013-04-29 12:59:00,
2013-04-29 06:09:00,55.0,51.8,29.89,ENE,70,1.0,4.0,89,0.00,,,0.00,Wunderground v.1.15,2013-04-29 13:09:00,
2013-04-29 06:19:00,54.8,51.6,29.90,ENE,70,2.0,4.0,89,0.00,,,0.00,Wunderground v.1.15,2013-04-29 13:19:00,
2013-04-29 06:29:00,54.8,51.6,29.90,ENE,70,2.0,2.0,89,0.00,,,0.00,Wunderground v.1.15,2013-04-29 13:29:00,
2013-04-29 06:39:00,54.8,51.6,29.90,ENE,71,0.0,4.0,89,0.00,,,0.00,Wunderground v.1.15,2013-04-29 13:39:00,
2013-04-29 06:49:00,55.0,52.1,29.90,ENE,70,1.0,2.0,90,0.00,,,0.00,Wunderground v.1.15,2013-04-29 13:49:00,
2013-04-29 06:59:00,55.0,52.1,29.90,ENE,70,1.0,3.0,90,0.00,,,0.00,Wunderground v.1.15,2013-04-29 13:59:00,
2013-04-29 07:09:00,55.3,52.4,29.90,ENE,70,1.0,1.0,90,0.00,,,0.00,Wunderground v.1.15,2013-04-29 14:09:00,
2013-04-29 07:19:00,55.3,52.4,29.90,ENE,70,1.0,4.0,90,0.00,,,0.00,Wunderground v.1.15,2013-04-29 14:19:00,
2013-04-29 07:29:00,55.3,52.4,29.90,ENE,69,2.0,4.0,90,0.00,,,0.00,Wunderground v.1.15,2013-04-29 14:29:00,
2013-04-29 07:39:00,55.3,52.7,29.90,ENE,70,1.0,3.0,91,0.00,,,0.00,Wunderground v.1.15,2013-04-29 14:39:00,
2013-04-29 07:49:00,55.1,52.5,29.90,ENE,70,0.0,4.0,91,0.00,,,0.00,Wunderground v.1.15,2013-04-29 14:49:00,
2013-04-29 07:59:00,55.4,52.8,29.90,ENE,70,1.0,1.0,91,0.00,,,0.00,Wunderground v.1.15,2013-04-29 14:59:00,
2013-04-29 08:09:00,55.7,53.1,29.90,ENE,70,1.0,3.0,91,0.00,,,0.00,Wunderground v.1.15,2013-04-29 15:09:00,
2013-04-29 08:19:00,55.7,53.1,29.90,ENE,70,2.0,2.0,91,0.00,,,0.00,Wunderground v.1.15,2013-04-29 15:19:00,
2013-04-29 08:29:00,55.9,53.3,29.91,ENE,70,1.0,1.0,91,0.00,,,0.00,Wunderground v.1.15,2013-04-29 15:29:00,
2013-04-29 08:39:00,56.0,53.1,29.91,ENE,70,1.0,1.0,90,0.00,,,0.00,Wunderground v.1.15,2013-04-29 15:39:00,
2013-04-29 08:49:00,56.3,53.4,29.90,ENE,70,0.0,3.0,90,0.00,,,0.00,Wunderground v.1.15,2013-04-29 15:49:00,
2013-04-29 08:59:00,56.5,53.6,29.91,ENE,70,1.0,1.0,90,0.00,,,0.00,Wunderground v.1.15,2013-04-29 15:59:00,
2013-04-29 09:09:00,56.7,53.5,29.91,ENE,70,1.0,1.0,89,0.00,,,0.00,Wunderground v.1.15,2013-04-29 16:09:00,
2013-04-29 09:19:00,57.2,54.0,29.91,ENE,70,0.0,3.0,89,0.00,,,0.00,Wunderground v.1.15,2013-04-29 16:19:00,
2013-04-29 09:29:00,57.6,54.1,29.91,ENE,69,3.0,3.0,88,0.00,,,0.00,Wunderground v.1.15,2013-04-29 16:29:00,
2013-04-29 09:39:00,57.8,54.0,29.91,ENE,69,3.0,3.0,87,0.00,,,0.00,Wunderground v.1.15,2013-04-29 16:39:00,
2013-04-29 09:49:00,58.4,54.2,29.91,ENE,68,2.0,2.0,86,0.00,,,0.00,Wunderground v.1.15,2013-04-29 16:49:00,
2013-04-29 09:59:00,59.3,54.5,29.90,ENE,67,0.0,5.0,84,0.00,,,0.00,Wunderground v.1.15,2013-04-29 16:59:00,
2013-04-29 10:09:00,59.3,54.1,29.90,South,175,2.0,2.0,83,0.00,,,0.00,Wunderground v.1.15,2013-04-29 17:09:00,
2013-04-29 10:19:00,60.1,54.6,29.90,South,175,0.0,6.0,82,0.00,,,0.00,Wunderground v.1.15,2013-04-29 17:19:00,
2013-04-29 10:29:00,60.5,54.3,29.90,South,176,1.0,6.0,80,0.00,,,0.00,Wunderground v.1.15,2013-04-29 17:29:00,
2013-04-29 10:39:00,60.9,54.3,29.90,South,188,2.0,6.0,79,0.00,,,0.00,Wunderground v.1.15,2013-04-29 17:39:00,
2013-04-29 10:49:00,61.6,54.7,29.90,South,189,1.0,1.0,78,0.00,,,0.00,Wunderground v.1.15,2013-04-29 17:49:00,
2013-04-29 10:59:00,61.8,54.9,29.90,SW,214,3.0,4.0,78,0.00,,,0.00,Wunderground v.1.15,2013-04-29 17:59:00,
2013-04-29 11:09:00,62.0,55.1,29.90,SSW,203,5.0,7.0,78,0.00,,,0.00,Wunderground v.1.15,2013-04-29 18:09:00,
2013-04-29 11:19:00,62.3,55.0,29.90,SSW,209,5.0,5.0,77,0.00,,,0.00,Wunderground v.1.15,2013-04-29 18:19:00,
2013-04-29 11:29:00,62.4,55.1,29.90,WSW,237,4.0,10.0,77,0.00,,,0.00,Wunderground v.1.15,2013-04-29 18:29:00,
2013-04-29 11:39:00,62.9,55.2,29.90,SSW,194,6.0,9.0,76,0.00,,,0.00,Wunderground v.1.15,2013-04-29 18:39:00,
2013-04-29 11:49:00,63.1,55.4,29.90,SW,230,6.0,11.0,76,0.00,,,0.00,Wunderground v.1.15,2013-04-29 18:49:00,
2013-04-29 11:59:00,63.2,55.5,29.90,SSW,196,7.0,7.0,76,0.00,,,0.00,Wunderground v.1.15,2013-04-29 18:59:00,
2013-04-29 12:09:00,63.5,55.4,29.90,SW,224,8.0,8.0,75,0.00,,,0.00,Wunderground v.1.15,2013-04-29 19:09:00,
2013-04-29 12:19:00,64.0,55.9,29.89,South,189,8.0,8.0,75,0.00,,,0.00,Wunderground v.1.15,2013-04-29 19:19:00,
2013-04-29 12:29:00,63.5,55.8,29.89,WSW,238,9.0,9.0,76,0.00,,,0.00,Wunderground v.1.15,2013-04-29 19:29:00,
2013-04-29 12:39:00,62.9,55.2,29.89,SSW,207,8.0,8.0,76,0.00,,,0.00,Wunderground v.1.15,2013-04-29 19:39:00,
2013-04-29 12:49:00,62.6,55.6,29.89,SSW,209,8.0,17.0,78,0.00,,,0.00,Wunderground v.1.15,2013-04-29 19:49:00,
2013-04-29 12:59:00,62.6,55.6,29.88,South,190,8.0,8.0,78,0.00,,,0.00,Wunderground v.1.15,2013-04-29 19:59:00,
2013-04-29 13:09:00,62.4,55.8,29.88,SSW,213,8.0,13.0,79,0.00,,,0.00,Wunderground v.1.15,2013-04-29 20:09:00,
2013-04-29 13:19:00,62.4,55.4,29.88,SSW,212,9.0,13.0,78,0.00,,,0.00,Wunderground v.1.15,2013-04-29 20:19:00,
2013-04-29 13:29:00,62.4,55.4,29.88,SW,215,9.0,9.0,78,0.00,,,0.00,Wunderground v.1.15,2013-04-29 20:29:00,
2013-04-29 13:39:00,62.9,55.6,29.88,WSW,244,7.0,14.0,77,0.00,,,0.00,Wunderground v.1.15,2013-04-29 20:39:00,
2013-04-29 13:49:00,63.2,55.5,29.87,SW,219,8.0,13.0,76,0.00,,,0.00,Wunderground v.1.15,2013-04-29 20:49:00,
2013-04-29 13:59:00,63.2,55.5,29.87,SW,229,8.0,8.0,76,0.00,,,0.00,Wunderground v.1.15,2013-04-29 20:59:00,
2013-04-29 14:09:00,63.2,55.1,29.87,SSW,199,8.0,14.0,75,0.00,,,0.00,Wunderground v.1.15,2013-04-29 21:09:00,
2013-04-29 14:19:00,63.2,55.1,29.86,SW,222,8.0,13.0,75,0.00,,,0.00,Wunderground v.1.15,2013-04-29 21:19:00,
2013-04-29 14:29:00,63.5,55.4,29.86,South,171,8.0,8.0,75,0.00,,,0.00,Wunderground v.1.15,2013-04-29 21:29:00,
2013-04-29 14:39:00,63.2,54.8,29.86,SSW,213,8.0,13.0,74,0.00,,,0.00,Wunderground v.1.15,2013-04-29 21:39:00,
2013-04-29 14:49:00,63.5,55.4,29.85,SSE,166,7.0,7.0,75,0.00,,,0.00,Wunderground v.1.15,2013-04-29 21:49:00,
2013-04-29 14:59:00,63.7,54.9,29.85,SSW,212,8.0,14.0,73,0.00,,,0.00,Wunderground v.1.15,2013-04-29 21:59:00,
2013-04-29 15:19:00,64.2,55.7,29.84,SW,221,7.0,7.0,74,0.00,,,0.00,Wunderground v.1.15,2013-04-29 22:19:00,
2013-04-29 15:29:00,63.7,54.9,29.83,SW,225,6.0,6.0,73,0.00,,,0.00,Wunderground v.1.15,2013-04-29 22:29:00,
2013-04-29 15:59:00,64.8,55.2,29.82,WSW,242,7.0,11.0,71,0.00,,,0.00,Wunderground v.1.15,2013-04-29 22:59:00,
2013-04-29 16:09:00,64.5,55.3,29.82,SW,224,6.0,12.0,72,0.00,,,0.00,Wunderground v.1.15,2013-04-29 23:09:00,
2013-04-29 16:19:00,64.0,55.2,29.82,SSW,200,7.0,12.0,73,0.00,,,0.00,Wunderground v.1.15,2013-04-29 23:19:00,
2013-04-29 16:29:00,64.2,55.4,29.82,SW,234,7.0,12.0,73,0.00,,,0.00,Wunderground v.1.15,2013-04-29 23:29:00,
2013-04-29 16:39:00,63.5,54.7,29.82,SW,229,7.0,7.0,73,0.00,,,0.00,Wunderground v.1.15,2013-04-29 23:39:00,
2013-04-29 16:49:00,63.4,55.3,29.82,SW,228,4.0,13.0,75,0.00,,,0.00,Wunderground v.1.15,2013-04-29 23:49:00,
2013-04-29 16:59:00,62.9,54.9,29.82,SSW,209,6.0,6.0,75,0.00,,,0.00,Wunderground v.1.15,2013-04-29 23:59:00,
2013-04-29 17:09:00,62.7,55.0,29.82,SW,230,5.0,5.0,76,0.00,,,0.00,Wunderground v.1.15,2013-04-30 00:09:00,
2013-04-29 17:19:00,62.9,54.9,29.82,WSW,257,4.0,4.0,75,0.00,,,0.00,Wunderground v.1.15,2013-04-30 00:19:00,
2013-04-29 17:29:00,62.9,54.9,29.81,WSW,250,4.0,7.0,75,0.00,,,0.00,Wunderground v.1.15,2013-04-30 00:29:00,
2013-04-29 17:39:00,62.6,54.9,29.81,SSW,213,5.0,8.0,76,0.00,,,0.00,Wunderground v.1.15,2013-04-30 00:39:00,
2013-04-29 17:49:00,62.4,54.7,29.80,WSW,245,4.0,10.0,76,0.00,,,0.00,Wunderground v.1.15,2013-04-30 00:49:00,
2013-04-29 17:59:00,62.4,54.7,29.80,WSW,257,4.0,7.0,76,0.00,,,0.00,Wunderground v.1.15,2013-04-30 00:59:00,
2013-04-29 18:09:00,62.3,54.6,29.80,WSW,239,4.0,7.0,76,0.00,,,0.00,Wunderground v.1.15,2013-04-30 01:09:00,
2013-04-29 18:19:00,62.0,54.7,29.80,SW,226,4.0,4.0,77,0.00,,,0.00,Wunderground v.1.15,2013-04-30 01:19:00,
2013-04-29 18:29:00,61.6,54.3,29.80,West,275,4.0,7.0,77,0.00,,,0.00,Wunderground v.1.15,2013-04-30 01:29:00,
2013-04-29 18:39:00,61.2,54.3,29.80,West,281,4.0,4.0,78,0.00,,,0.00,Wunderground v.1.15,2013-04-30 01:39:00,
2013-04-29 18:49:00,60.5,54.0,29.80,WNW,284,3.0,10.0,79,0.00,,,0.00,Wunderground v.1.15,2013-04-30 01:49:00,
2013-04-29 18:59:00,60.2,54.0,29.80,WSW,250,4.0,4.0,80,0.00,,,0.00,Wunderground v.1.15,2013-04-30 01:59:00,
2013-04-29 19:09:00,60.1,54.2,29.80,West,271,3.0,3.0,81,0.00,,,0.00,Wunderground v.1.15,2013-04-30 02:09:00,
2013-04-29 19:19:00,59.8,54.3,29.80,SW,227,4.0,4.0,82,0.00,,,0.00,Wunderground v.1.15,2013-04-30 02:19:00,
2013-04-29 19:29:00,59.6,54.1,29.80,SW,225,2.0,7.0,82,0.00,,,0.00,Wunderground v.1.15,2013-04-30 02:29:00,
2013-04-29 19:39:00,59.5,54.0,29.80,SW,225,3.0,3.0,82,0.00,,,0.00,Wunderground v.1.15,2013-04-30 02:39:00,
2013-04-29 19:59:00,59.3,54.1,29.81,SW,225,1.0,1.0,83,0.00,,,0.00,Wunderground v.1.15,2013-04-30 02:59:00,
2013-04-29 20:09:00,59.2,54.0,29.81,WSW,256,2.0,5.0,83,0.00,,,0.00,Wunderground v.1.15,2013-04-30 03:09:00,
2013-04-29 20:19:00,59.0,53.8,29.81,WSW,256,1.0,1.0,83,0.00,,,0.00,Wunderground v.1.15,2013-04-30 03:19:00,
2013-04-29 20:29:00,59.2,54.0,29.82,WSW,256,2.0,2.0,83,0.00,,,0.00,Wunderground v.1.15,2013-04-30 03:29:00,
2013-04-29 20:39:00,59.0,54.2,29.82,WSW,256,2.0,2.0,84,0.00,,,0.00,Wunderground v.1.15,2013-04-30 03:39:00,
2013-04-29 20:49:00,59.0,54.2,29.82,WSW,256,1.0,4.0,84,0.00,,,0.00,Wunderground v.1.15,2013-04-30 03:49:00,
2013-04-29 20:59:00,58.9,54.1,29.82,WSW,255,2.0,3.0,84,0.00,,,0.00,Wunderground v.1.15,2013-04-30 03:59:00,
2013-04-29 21:09:00,58.9,54.1,29.82,WSW,255,0.0,3.0,84,0.00,,,0.00,Wunderground v.1.15,2013-04-30 04:09:00,
2013-04-29 21:19:00,58.9,54.1,29.82,WSW,256,1.0,3.0,84,0.00,,,0.00,Wunderground v.1.15,2013-04-30 04:19:00,
2013-04-29 21:29:00,58.9,54.1,29.83,WSW,255,1.0,3.0,84,0.00,,,0.00,Wunderground v.1.15,2013-04-30 04:29:00,
2013-04-29 21:39:00,59.0,54.2,29.83,WSW,255,1.0,1.0,84,0.00,,,0.00,Wunderground v.1.15,2013-04-30 04:39:00,
2013-04-29 21:49:00,59.0,54.2,29.83,WSW,255,1.0,1.0,84,0.00,,,0.00,Wunderground v.1.15,2013-04-30 04:49:00,
2013-04-29 21:59:00,59.0,54.2,29.83,WSW,255,1.0,4.0,84,0.00,,,0.00,Wunderground v.1.15,2013-04-30 04:59:00,
2013-04-29 22:09:00,58.9,54.1,29.83,WSW,254,2.0,2.0,84,0.00,,,0.00,Wunderground v.1.15,2013-04-30 05:09:00,
2013-04-29 22:19:00,59.0,54.2,29.83,WSW,254,1.0,5.0,84,0.00,,,0.00,Wunderground v.1.15,2013-04-30 05:19:00,
2013-04-29 22:29:00,58.9,54.1,29.83,SSW,203,3.0,4.0,84,0.00,,,0.00,Wunderground v.1.15,2013-04-30 05:29:00,
2013-04-29 22:39:00,58.9,54.4,29.83,SSW,199,3.0,6.0,85,0.00,,,0.00,Wunderground v.1.15,2013-04-30 05:39:00,
2013-04-29 22:49:00,58.9,54.4,29.84,SSW,199,4.0,6.0,85,0.00,,,0.00,Wunderground v.1.15,2013-04-30 05:49:00,
2013-04-29 22:59:00,58.7,54.2,29.84,South,184,4.0,6.0,85,0.00,,,0.00,Wunderground v.1.15,2013-04-30 05:59:00,
2013-04-29 23:09:00,58.4,53.9,29.84,South,188,4.0,7.0,85,0.00,,,0.00,Wunderground v.1.15,2013-04-30 06:09:00,
2013-04-29 23:19:00,58.3,54.1,29.84,South,185,4.0,4.0,86,0.00,,,0.00,Wunderground v.1.15,2013-04-30 06:19:00,
2013-04-29 23:29:00,58.1,53.9,29.85,South,182,4.0,9.0,86,0.00,,,0.00,Wunderground v.1.15,2013-04-30 06:29:00,
2013-04-29 23:39:00,58.0,53.8,29.85,South,180,5.0,8.0,86,0.00,,,0.00,Wunderground v.1.15,2013-04-30 06:39:00,
2013-04-29 23:49:00,57.8,53.6,29.85,South,184,5.0,9.0,86,0.00,,,0.00,Wunderground v.1.15,2013-04-30 06:49:00,
2013-04-29 23:59:00,57.5,53.3,29.85,South,180,5.0,10.0,86,0.00,,,0.00,Wunderground v.1.15,2013-04-30 06:59:00,